Spokane Felts, WA

4:54 PM PDT on June 18, 2018 (GMT -0700)
Felts

Weather History for KSFF - June, 2018

Change the Weather History Date:

Thursday, June 14, 2018

  Actual Average Record
Temperature  
Mean Temperature 60 °F 62 °F  
Max Temperature 71 °F 74 °F 90 °F (1999)
Min Temperature 49 °F 50 °F 43 °F (2008)
Degree Days  
Heating Degree Days 5 4  
Month to date heating degree days 62 74  
Since 1 June heating degree days 62 74  
Since 1 July heating degree days 5739 6249  
Cooling Degree Days 0 1  
Month to date cooling degree days 8 14  
Year to date cooling degree days 43 21  
Since 1 June cooling degree days 8 14  
Growing Degree Days 10 (Base 50)    
Moisture  
Dew Point 38 °F    
Average Humidity 47    
Maximum Humidity 66    
Minimum Humidity 28    
Precipitation  
Precipitation 0.00 in 0.05 in 0.55 in (2006)
Month to date precipitation 0.39 0.78  
Year to date precipitation 8.82 8.63  
Sea Level Pressure  
Sea Level Pressure 29.91 in    
Wind  
Wind Speed 8 mph (SW)    
Max Wind Speed 18 mph    
Max Gust Speed 23 mph    
Visibility 10 miles    
Events      
T = Trace of Precipitation, MM = Missing Value Source: NWS Daily Summary

Daily Weather History Graph

Daily Weather History Graph

Search for Another Location

Airport or City:

Astronomy

Jun. 14, 2018 Rise Set
Actual Time 4:50 AM PDT 8:48 PM PDT
Civil Twilight 4:10 AM PDT 9:29 PM PDT
Nautical Twilight 3:13 AM PDT 10:25 PM PDT
Astronomical Twilight 1:44 AM PDT 11:56 PM PDT
Moon 5:57 AM PDT (6/14) 9:49 PM PDT (6/14)
Length of Visible Light 17h 19m
Length of Day
15h 58m
New Moon, 1% of the Moon is Illuminated
Jun 14
New Moon
Jun 20
First Quarter
Jun 27
Full
Jul 6
Last Quarter
Jul 12
New

Hourly Weather History & Observations

Time (PDT) Temp. Dew Point Humidity Pressure Visibility Wind Dir Wind Speed Gust Speed Precip Events Conditions
12:53 AM 55.0 °F 37.0 °F 51% 29.79 in 10.0 mi WSW 10.4 mph - N/A   Clear
1:53 AM 53.1 °F 37.0 °F 55% 29.81 in 10.0 mi WSW 8.1 mph - N/A   Clear
2:53 AM 52.0 °F 37.0 °F 57% 29.83 in 10.0 mi SW 10.4 mph - N/A   Partly Cloudy
3:53 AM 50.0 °F 37.9 °F 63% 29.86 in 10.0 mi SW 9.2 mph - N/A   Mostly Cloudy
4:53 AM 50.0 °F 39.0 °F 66% 29.88 in 10.0 mi SW 6.9 mph - N/A   Overcast
5:53 AM 50.0 °F 37.9 °F 63% 29.90 in 10.0 mi SW 9.2 mph - N/A   Mostly Cloudy
6:53 AM 51.1 °F 39.9 °F 66% 29.93 in 10.0 mi SSW 9.2 mph - N/A   Mostly Cloudy
7:53 AM 53.1 °F 41.0 °F 64% 29.95 in 10.0 mi South 10.4 mph - N/A   Mostly Cloudy
8:53 AM 55.0 °F 41.0 °F 59% 29.97 in 10.0 mi SSW 11.5 mph - N/A   Mostly Cloudy
9:53 AM 59.0 °F 41.0 °F 51% 29.97 in 10.0 mi South 9.2 mph - N/A   Overcast
10:53 AM 62.1 °F 39.9 °F 44% 29.97 in 10.0 mi South 8.1 mph - N/A   Mostly Cloudy
11:53 AM 63.0 °F 36.0 °F 37% 29.97 in 10.0 mi West 8.1 mph - N/A   Mostly Cloudy
12:53 PM 66.0 °F 37.0 °F 34% 29.96 in 10.0 mi SW 15.0 mph - N/A   Overcast
1:53 PM 69.1 °F 36.0 °F 30% 29.95 in 10.0 mi WSW 8.1 mph - N/A   Overcast
2:28 PM 70.0 °F 36.0 °F 29% 29.97 in 10.0 mi SW 18.4 mph 23.0 mph N/A   Overcast
2:53 PM 68.0 °F 35.1 °F 30% 29.95 in 10.0 mi SSW 12.7 mph - N/A   Mostly Cloudy
3:53 PM 69.1 °F 35.1 °F 29% 29.94 in 10.0 mi SSW 12.7 mph 17.3 mph N/A   Mostly Cloudy
4:53 PM 69.1 °F 36.0 °F 30% 29.92 in 10.0 mi SW 9.2 mph - N/A   Mostly Cloudy
5:53 PM 70.0 °F 35.1 °F 28% 29.91 in 10.0 mi SSW 11.5 mph - N/A   Mostly Cloudy
6:53 PM 70.0 °F 35.1 °F 28% 29.89 in 10.0 mi SSW 9.2 mph - N/A   Scattered Clouds
7:53 PM 68.0 °F 36.0 °F 31% 29.89 in 10.0 mi Variable 4.6 mph - N/A   Scattered Clouds
8:53 PM 64.9 °F 37.9 °F 37% 29.89 in 10.0 mi SSW 5.8 mph - N/A   Clear
9:53 PM 55.9 °F 42.1 °F 60% 29.91 in 10.0 mi NNE 3.5 mph - N/A   Clear
10:53 PM 55.0 °F 42.1 °F 62% 29.91 in 10.0 mi NNE 3.5 mph - N/A   Clear
11:53 PM 54.0 °F 42.1 °F 64% 29.90 in 10.0 mi North 3.5 mph - N/A   Clear